Wayana — PE5639 — position and weather

sailwx.info

Track history (hours):
 
Tides and Currents Weather Stations Pressure Air Temp Water Temp Dewpoint Dewpoint Depression Visibility Wind Speed Wind Dir Waves Ship Positions

Wayana

Last reported at 2016-Oct-03 11:28 UTC. Time now 2016-Dec-05 08:34 UTC.
Position N 52°53' E 005°21'.
Warning: this ship's position is months out of date.

Length 14 m.

Type: Sailing vessel. MMSI: 244020670.

Date/timePositionNaut miles runAvg speedWind from/ knotsBaromVisibWave heightAir tempDewpointWater temp
2016-Oct-03 11:28N 52°53' E 005°21'3 2.9
2016-Oct-03 10:33N 52°54' E 005°17'6 5.9
2016-Oct-03 09:33N 52°56' E 005°08'  
2016-Sep-25 12:32N 52°55' E 005°03'0 0.0
2016-Sep-25 11:32N 52°55' E 005°03'0 0.0
2016-Sep-25 10:32N 52°55' E 005°03'4 4.2
2016-Sep-25 09:33N 52°52' E 005°06'11 5.5
2016-Sep-25 07:33N 52°44' E 005°18'2 0.6
2016-Sep-25 04:33N 52°42' E 005°18'0 0.0
2016-Sep-25 00:33N 52°42' E 005°18'0 0.0
2016-Sep-24 22:33N 52°42' E 005°18'0 0.0
2016-Sep-24 21:33N 52°42' E 005°18'0 0.0
2016-Sep-24 19:33N 52°42' E 005°18'0 0.0
2016-Sep-24 18:33N 52°42' E 005°18'0 0.0
2016-Sep-24 17:33N 52°42' E 005°18'0 0.0
2016-Sep-24 16:33N 52°42' E 005°18'0 0.0
2016-Sep-24 14:33N 52°42' E 005°18'0 0.0
2016-Sep-24 12:33N 52°42' E 005°18'0 0.0
2016-Sep-24 10:33N 52°42' E 005°18'0 0.0
2016-Sep-24 09:33N 52°42' E 005°18'0 0.0
2016-Sep-24 03:33N 52°42' E 005°18'0 0.0
2016-Sep-24 02:33N 52°42' E 005°18'0 0.0
2016-Sep-24 01:33N 52°42' E 005°18'0 0.0
2016-Sep-24 00:33N 52°42' E 005°18'0 0.0
2016-Sep-23 19:33N 52°42' E 005°18'0 0.0
2016-Sep-23 17:33N 52°42' E 005°18'0 0.0
2016-Sep-23 16:33N 52°42' E 005°18'0 0.0
2016-Sep-23 15:33N 52°42' E 005°18'0 0.0
2016-Sep-23 13:33N 52°42' E 005°18'  
Track history (hours):
 
Tides and Currents Weather Stations Pressure Air Temp Water Temp Dewpoint Dewpoint Depression Visibility Wind Speed Wind Dir Waves Ship Positions

Wayana

Last reported at 2016-Oct-03 11:28 UTC. Time now 2016-Dec-05 08:34 UTC.
Position N 52°53' E 005°21'.
Warning: this ship's position is months out of date.

Length 14 m.

Type: Sailing vessel. MMSI: 244020670.

Date/timePositionNaut miles runAvg speedWind from/ knotsBaromVisibWave heightAir tempDewpointWater temp
2016-Oct-03 11:28N 52°53' E 005°21'3 2.9
2016-Oct-03 10:33N 52°54' E 005°17'6 5.9
2016-Oct-03 09:33N 52°56' E 005°08'  
2016-Sep-25 12:32N 52°55' E 005°03'0 0.0
2016-Sep-25 11:32N 52°55' E 005°03'0 0.0
2016-Sep-25 10:32N 52°55' E 005°03'4 4.2
2016-Sep-25 09:33N 52°52' E 005°06'11 5.5
2016-Sep-25 07:33N 52°44' E 005°18'2 0.6
2016-Sep-25 04:33N 52°42' E 005°18'0 0.0
2016-Sep-25 00:33N 52°42' E 005°18'0 0.0
2016-Sep-24 22:33N 52°42' E 005°18'0 0.0
2016-Sep-24 21:33N 52°42' E 005°18'0 0.0
2016-Sep-24 19:33N 52°42' E 005°18'0 0.0
2016-Sep-24 18:33N 52°42' E 005°18'0 0.0
2016-Sep-24 17:33N 52°42' E 005°18'0 0.0
2016-Sep-24 16:33N 52°42' E 005°18'0 0.0
2016-Sep-24 14:33N 52°42' E 005°18'0 0.0
2016-Sep-24 12:33N 52°42' E 005°18'0 0.0
2016-Sep-24 10:33N 52°42' E 005°18'0 0.0
2016-Sep-24 09:33N 52°42' E 005°18'0 0.0
2016-Sep-24 03:33N 52°42' E 005°18'0 0.0
2016-Sep-24 02:33N 52°42' E 005°18'0 0.0
2016-Sep-24 01:33N 52°42' E 005°18'0 0.0
2016-Sep-24 00:33N 52°42' E 005°18'0 0.0
2016-Sep-23 19:33N 52°42' E 005°18'0 0.0
2016-Sep-23 17:33N 52°42' E 005°18'0 0.0
2016-Sep-23 16:33N 52°42' E 005°18'0 0.0
2016-Sep-23 15:33N 52°42' E 005°18'0 0.0
2016-Sep-23 13:33N 52°42' E 005°18'  

Dump ship's entire track history